Flag for Germany Weather past 2 weeks in Zweibrücken, Rhineland-Palatinate, Germany

Now
43 °F

Partly sunny.


Feels Like: 35 °F
Forecast: 29 / 46 °F
Wind: 17 mph from West

Location: Saarbruecken / Ensheim

Current Time: Apr 1, 2015 at 8:38:32 PM

Latest Report: Apr 1, 2015 at 8:20 PM


Visibility: N/A

Pressure: 30.18 "Hg

Humidity: 57%

Dew point: 28 °F

Location of ZweibrückenLocation

Historic Weather in Zweibrücken — Graph

°F

Zweibrücken temperature yesterday

Maximum temperature yesterday: 54 °F (at 2:50 PM)
Minimum temperature yesterday: 41 °F (at 4:50 PM)
Average temperature yesterday: 47 °F

Past Weeks' High & Low Weather Summary

 TemperatureHumidityPressure
High64 °F (Mar 18, 2:20 PM)100% (Mar 21, 8:50 AM)30.30 "Hg (Mar 21, 8:50 AM)
Low32 °F (Mar 21, 6:20 AM)32% (Mar 18, 3:50 PM)29.53 "Hg (Mar 29, 9:50 PM)
Average45 °F74%29.97 "Hg
* Reported Mar 17 6:20 PM — Apr 1 7:20 PM, Zweibrücken, Weather by CustomWeather, © 2015

Note: Actual official high and low records may vary slightly from our data, if they occured in-between our weather recording intervals... More about our weather records

Advertising

Zweibrücken weather history for previous 24 hours

 ConditionsComfort  
Time TempWeatherWind HumidityBarometerVisibility
7:20 PM
Wed, Apr 1
45 °FBroken clouds.24 mph49%30.18 "HgN/A
6:50 PM45 °FBroken clouds.16 mph53%30.15 "HgN/A
6:20 PM45 °FBroken clouds.21 mph53%30.15 "HgN/A
5:50 PM46 °FBroken clouds.21 mph50%30.15 "HgN/A
5:20 PM45 °FBroken clouds.22 mph53%30.15 "HgN/A
4:50 PM43 °FSprinkles. Scattered clouds.22 mph57%30.15 "HgN/A
4:20 PM45 °FScattered clouds.23 mph53%30.15 "HgN/A
3:50 PM43 °FScattered clouds.21 mph61%30.15 "HgN/A
3:20 PM43 °FSprinkles. Scattered clouds.22 mph61%30.15 "HgN/A
2:50 PM41 °FSprinkles. Broken clouds.18 mph66%30.18 "HgN/A
2:20 PM41 °FSprinkles. Partly sunny.21 mph70%30.18 "HgN/A
1:50 PM43 °FScattered clouds.21 mph61%30.15 "HgN/A
1:20 PM43 °FScattered clouds.22 mph61%30.15 "HgN/A
12:50 PM43 °FScattered clouds.24 mph61%30.15 "HgN/A
12:20 PM41 °FScattered clouds.21 mph61%30.15 "HgN/A
11:50 AM41 °FQuite cool.20 mph66%30.15 "HgN/A
11:20 AM41 °FPartly sunny.22 mph61%30.15 "HgN/A
10:50 AM41 °FScattered clouds.17 mph66%30.12 "HgN/A
10:20 AM41 °FScattered clouds.22 mph70%30.12 "HgN/A
9:50 AM39 °FScattered clouds.16 mph75%30.12 "HgN/A
9:20 AM39 °FScattered clouds.16 mph75%30.12 "HgN/A
8:50 AM37 °FScattered clouds.12 mph87%30.09 "HgN/A
8:20 AM36 °FPassing clouds.10 mph93%30.09 "HgN/A
7:50 AM34 °FPassing clouds.13 mph93%30.07 "HgN/A
7:20 AM34 °FPassing clouds.10 mph93%30.07 "HgN/A
6:50 AM34 °FPassing clouds.12 mph87%30.07 "HgN/A
6:20 AM34 °FPassing clouds.17 mph87%30.04 "HgN/A
5:50 AM34 °FSprinkles. Partly cloudy.25 mph87%30.04 "Hg3 mi
5:20 AM37 °FPartly cloudy.16 mph87%30.01 "HgN/A
4:50 AM37 °FPartly cloudy.15 mph87%30.01 "HgN/A
4:20 AM37 °FPassing clouds.18 mph87%30.01 "HgN/A
3:50 AM37 °FPassing clouds.16 mph87%30.01 "HgN/A
3:20 AM37 °FPartly cloudy.16 mph93%29.98 "HgN/A
2:50 AM37 °FPartly cloudy.16 mph93%29.98 "HgN/A
2:20 AM36 °FPartly cloudy.14 mph93%29.98 "HgN/A
1:50 AM36 °FPartly cloudy.12 mph93%29.98 "HgN/A
1:20 AM34 °FThunderstorms. Passing clouds.17 mph93%29.98 "HgN/A
12:50 AM43 °FSprinkles. Passing clouds.21 mph71%29.95 "HgN/A
12:20 AM45 °FPassing clouds.23 mph66%29.95 "HgN/A
11:50 PM
Tue, Mar 31
43 °FPassing clouds.21 mph66%29.92 "HgN/A
11:20 PM45 °FPassing clouds.23 mph66%29.92 "HgN/A
10:50 PM43 °FPassing clouds.21 mph71%29.92 "HgN/A
10:20 PM43 °FPassing clouds.18 mph76%29.92 "HgN/A
9:50 PM41 °FPassing clouds.14 mph87%29.92 "HgN/A
9:20 PM41 °FPassing clouds.6 mph81%29.92 "HgN/A
8:50 PM41 °FScattered clouds.7 mph81%29.89 "HgN/A
8:20 PM41 °FScattered clouds.10 mph81%29.89 "HgN/A
Weather by CustomWeather, © 2015

See weather overviewHow to use our weather pages